sat.trackr.live / text

‹ back to catalog

STARLINK-38039

NORAD 69719 · 2026-147R

PAYLOAD ACTIVE UNKNOWN

§ Identity

Operator
Country
US
Launch date
2026-06-28
Launch site
AFWTR
Launch vehicle
Mass (kg)
RCS (m²)

Purposes: comms

External: N2YO · Heavens-Above · Gunter

§ Orbital elements

Epoch: 2026-09-19T20:06:13.070592Z

Period
93.91 min
Inclination
97.2847°
Eccentricity
0.0000682
Mean motion
15.33458302 rev/d
Perigee alt
465.0 km
Apogee alt
466.0 km
Semi-major
6,843.6 km
B*
3.6993e-4
RAAN
299.2298°
Arg perigee
123.3226°
Mean anomaly
236.8082°
Rev number
1,413

§ Raw data

STARLINK-380391 69719U 26147R   26262.83765128  .00011891  00000+0  36993-3 0  99922 69719  97.2847 299.2298 0000682 123.3226 236.8082 15.33458302 14139

JSON: /api/v1/satellites/69719 · /tle

For live sub-satellite position, see the globe view (requires WebGL).

§ Visibility from observer

Set your observer location to see the next 7 days of passes ≥ 10°. The values pass through the URL so the page stays shareable.

No JS? Fill the form by hand. The geolocation button needs JavaScript.